SCP
0 0 0 0 0 0 0 0 0 0 0 0 0 0 0 0 0 0 0 0 0 0 0 0 0 0 0 0 0 0 0 0 0 0 0 0 0 0 0 0 0 0 0
0 0 0 0 0 0 0 0 0 0 0 0 0 0 0 0 0 0 0 0 0 0 0 0 0 0 0 0 0 0 0 0 0 0 0 0 0 0 0 0 0 0 0
0 0 0 0 0 0 0 0 0 0 0 0 0 0 0 0 0 0 0 0 0 0 0 0 0 0 0 0 0 0 0 0 0 0 0 0 0 0 0 0 0 0 0
0 0 0 0 0 0 0 0 0 0 0 0 0 0 0 0 0 0 0 0 0 0 0 0 0 0 0 0 0 0 0 0 0 0 0 0 0 0 0 0 0 0 0
0 0 0 0 0 0 0 0 0 0 0 0 0 0 0 0 0 0 0 0 0 0 0 0 0 0 0 0 0 0 0 0 0 0 0 0 0 0 0 0 0 0 0
0 0 0 0 0 0 0 0 0 0 0 0 0 0 0 0 0 0 0 0 0 0 0 0 0 0 0 0 0 0 0 0 0 0 0 0 0 0 0 0 0 0 0
0 0 1 0 0 0 0 0 0 0 0 0 0 0 0 0 0 0 0 0 0 0 0 0 0 0 0 0 0 0 0 0 0 0 0 0 0 0 0 0 0 0 0
1 1 1 1 1 0 0 0 0 0 0 0 0 0 0 0 0 0 0 0 0 0 0 0 0 0 0 0 0 0 0 0 0 0 0 0 1 0 0 0 0 0 0
1 1 1 1 1 1 1 0 0 0 0 0 0 0 0 0 0 0 0 0 0 0 0 0 0 0 0 0 0 0 0 0 0 0 0 0 1 0 0 0 0 0 0
1 1 1 1 1 1 1 0 0 0 0 0 0 0 0 0 0 0 0 0 0 0 0 0 0 0 0 0 0 0 0 0 0 0 0 0 0 0 0 0 0 0 0
1 1 1 1 1 1 1 0 0 0 0 0 0 0 0 0 0 0 0 0 0 0 0 0 0 0 0 0 0 0 0 0 0 0 0 0 0 0 0 0 0 0 0
1 1 1 1 1 1 1 1 0 0 0 0 0 0 0 0 0 0 0 0 0 0 0 0 0 0 0 0 0 0 0 0 0 0 0 0 0 0 0 0 0 0 0
1 1 1 1 1 1 1 0 0 0 0 0 0 0 0 0 0 0 0 0 0 0 0 0 0 0 0 0 0 0 0 0 0 0 0 0 0 0 0 0 0 0 0
0 1 1 1 1 1 1 1 0 0 0 0 0 0 0 0 0 0 0 0 0 0 0 0 0 0 0 0 0 0 0 0 0 0 0 0 0 0 0 0 0 0 0
0 1 1 1 1 1 1 1 1 1 1 1 0 0 0 0 0 0 0 0 0 0 0 0 0 0 0 0 0 0 0 0 0 0 0 0 0 0 0 0 0 0 0
0 0 1 1 1 1 1 1 0 0 1 1 0 0 0 0 0 0 0 0 0 0 0 0 0 0 0 0 0 0 0 0 0 0 0 0 0 0 0 0 0 0 0
0 0 0 0 0 0 0 0 0 0 0 0 0 0 0 0 0 0 0 0 0 0 0 0 0 0 0 0 0 0 0 0 0 0 0 0 0 0 0 0 0 0 0
0 0 0 0 0 0 0 0 0 0 0 0 0 0 0 0 0 0 0 0 0 0 0 0 0 0 0 0 0 0 0 0 0 0 0 0 0 0 0 0 0 0 0
0 0 0 0 0 0 0 0 0 0 0 0 0 0 0 0 0 0 0 0 0 0 0 0 0 0 0 0 0 0 0 0 0 0 0 0 0 0 0 0 0 0 0
0 0 0 0 0 0 0 0 0 0 0 0 0 0 0 0 0 0 0 0 0 0 0 0 0 0 0 0 0 0 0 0 0 0 0 0 0 0 0 0 0 0 0
0 0 0 0 0 0 0 0 0 0 0 0 0 0 0 0 0 0 0 0 0 0 0 0 0 0 0 0 0 0 0 0 0 0 0 0 0 0 0 0 0 0 0
0 0 0 0 0 0 0 0 0 0 0 0 0 0 0 0 0 0 0 0 0 0 0 0 0 0 0 0 0 0 0 0 0 0 0 0 0 0 0 0 0 0 0
0 0 0 0 0 0 0 0 0 0 0 0 0 0 0 0 0 0 0 0 0 0 0 0 0 0 0 0 0 0 0 0 0 0 0 0 0 0 0 0 0 0 0
0 0 0 0 0 0 0 0 0 0 0 0 0 0 0 0 0 0 0 0 0 0 0 0 0 0 0 0 0 0 0 0 0 0 0 0 0 0 0 0 0 0 0
0 0 0 0 0 0 0 0 0 0 0 0 0 0 0 0 0 0 0 0 0 0 0 0 0 0 0 0 0 0 0 0 0 0 0 0 0 0 0 0 0 0 0
0 0 0 0 0 0 0 0 0 0 0 0 0 0 0 0 0 0 0 0 0 0 0 0 0 0 0 0 0 0 0 0 0 0 0 0 0 0 0 0 0 0 0
Wind_Speed
8 7 5 5 5 4 5 5 4 5 5 5 4 5 4 4 5 4 3 9 9 8 7 7 6 6 5 4 4 3 3 3 2 1 0 0 0 1 1 2 2 2 3
8 8 7 6 6 5 5 5 6 5 4 4 4 5 5 4 4 5 4 5 8 8 7 7 6 5 4 3 3 3 3 3 2 1 1 1 1 2 2 2 2 2 3
10 9 8 7 7 6 6 4 4 3 3 4 4 4 4 4 4 4 4 3 3 6 6 7 6 5 4 3 2 3 3 2 1 1 1 1 2 2 3 3 3 3 3
11 9 8 8 7 6 5 5 4 4 3 3 3 3 3 3 3 4 3 3 3 2 4 5 6 5 4 3 3 3 3 3 2 1 1 1 1 2 3 3 3 4 4
12 9 8 7 7 6 5 6 4 4 4 3 3 2 2 2 3 3 3 4 4 3 2 3 4 4 4 3 3 3 3 2 2 3 2 2 2 2 3 3 3 4 5
11 9 7 8 8 6 5 5 4 3 3 4 3 2 1 1 2 2 3 3 3 4 3 3 2 2 3 3 3 3 3 3 3 3 2 2 2 2 3 4 5 4 4
10 9 7 7 7 7 7 7 4 4 3 3 3 1 1 0 1 1 2 3 3 3 4 3 3 2 2 3 2 2 3 3 3 3 2 2 2 3 4 5 6 6 5
8 8 8 7 7 6 6 7 5 4 3 4 4 3 1 1 1 1 2 3 3 3 3 4 4 3 2 2 2 3 3 3 3 3 2 1 2 3 5 6 6 6 6
7 7 8 7 6 6 6 6 6 6 4 3 3 5 4 4 1 0 1 2 3 3 3 3 4 4 4 2 2 2 2 2 2 3 2 1 2 3 5 6 7 7 7
6 6 7 7 6 5 6 6 5 4 5 4 3 2 2 4 4 2 1 1 2 3 3 3 4 4 4 3 2 3 2 2 2 1 1 0 2 3 4 6 7 7 7
5 6 6 6 6 5 6 6 5 5 4 5 4 3 2 1 2 3 3 2 1 2 3 3 3 3 4 3 2 3 3 2 1 1 1 1 2 3 5 6 7 7 8
3 5 5 5 5 5 6 6 6 7 6 5 4 4 4 4 4 4 4 3 3 2 2 2 3 3 3 3 4 5 4 2 1 0 1 2 3 4 5 6 7 7 8
3 4 4 4 4 5 5 5 6 6 6 6 6 5 4 4 4 4 4 3 3 2 1 1 2 3 3 3 3 6 4 3 1 0 1 2 3 4 5 6 7 8 8
2 3 4 4 4 4 5 5 5 5 5 6 7 6 4 4 4 4 4 5 3 2 2 3 1 2 3 3 4 6 3 3 2 2 2 2 3 3 5 6 7 8 8
1 1 2 3 3 4 4 5 4 5 5 5 5 6 5 4 4 3 3 4 5 5 5 4 3 2 3 3 5 4 3 4 4 3 2 2 2 3 4 5 7 7 7
1 1 1 2 2 3 3 4 4 5 6 5 4 5 5 4 4 4 4 3 3 4 4 3 2 3 4 3 6 4 3 5 4 3 2 1 1 1 3 5 6 7 7
2 0 1 2 3 3 4 4 5 5 7 6 6 7 7 5 5 4 4 4 4 4 4 2 1 2 4 4 4 3 3 2 2 4 3 2 1 1 2 4 6 7 7
4 3 1 1 2 3 3 4 5 6 6 7 7 7 7 5 6 5 4 4 4 4 4 4 3 3 3 4 4 4 2 2 2 4 5 3 2 0 2 4 5 7 7
6 5 3 2 2 2 3 4 4 5 5 6 7 7 7 7 7 5 5 5 4 3 3 4 4 2 2 3 3 2 2 2 2 3 4 4 3 1 1 2 4 5 6
6 5 4 3 3 3 2 3 3 3 4 4 5 6 7 8 8 8 6 6 5 5 4 4 4 3 3 3 3 3 3 2 2 1 2 2 2 1 1 1 3 4 5
6 6 5 4 3 3 2 3 3 3 4 4 4 5 5 7 9 8 7 7 7 6 5 5 4 4 4 4 5 4 4 2 2 2 1 1 0 0 1 2 2 2 3
7 6 6 6 5 4 7 7 5 3 4 4 5 4 4 6 9 12 12 12 12 9 8 6 5 6 6 5 4 4 4 3 3 3 3 2 1 1 1 1 1 1 2
6 7 6 6 6 7 9 9 8 4 4 5 5 4 4 5 7 6 9 12 12 14 12 8 7 7 7 7 7 6 5 4 4 4 4 2 1 2 1 2 2 1 0
6 6 6 6 6 8 11 11 10 5 4 5 5 6 6 6 6 7 6 6 6 7 9 7 7 7 6 7 8 7 6 4 3 2 3 3 2 2 1 1 3 2 1
6 6 6 7 7 8 11 12 10 4 4 5 5 6 6 7 11 12 8 7 6 5 6 8 9 8 10 11 9 6 6 4 3 3 2 3 3 2 1 1 2 2 2
6 6 6 6 7 7 11 12 10 4 4 4 4 5 10 11 13 14 9 9 9 7 6 6 6 6 6 8 12 8 7 5 4 4 4 4 3 3 2 1 1 1 1
Wind_Direction
167 168 171 171 169 167 170 172 179 188 202 214 220 221 222 208 192 187 196 200 197 199 203 208 218 228 227 223 215 200 177 176 175 162 122 15 311 313 306 309 334 344 347
170 173 175 178 179 180 181 181 185 191 203 206 217 217 214 196 186 182 187 200 207 207 212 217 220 221 222 215 204 177 162 170 182 199 236 289 299 283 279 277 290 303 316
173 174 177 182 185 182 182 179 187 190 201 206 212 208 194 185 176 180 182 188 202 214 219 220 212 209 199 193 185 155 139 140 169 220 264 310 325 314 298 282 273 278 285
175 174 178 185 183 179 180 181 181 183 201 196 190 188 180 171 169 174 174 178 183 193 215 215 207 195 183 191 183 161 136 115 114 108 118 69 22 353 326 308 288 269 268
179 177 181 184 178 179 182 185 178 173 182 182 174 170 175 172 174 165 166 174 178 176 175 185 182 169 170 182 177 167 153 138 120 115 112 77 46 9 347 332 318 288 271
181 179 180 181 177 177 182 183 173 171 169 165 151 141 172 193 179 169 167 163 164 165 159 154 149 149 150 153 164 167 158 141 137 131 117 83 44 18 1 351 340 321 297
181 178 179 178 179 183 185 178 163 166 166 149 123 116 358 307 204 186 166 157 157 157 149 148 141 134 129 121 126 151 156 152 151 141 119 81 36 14 354 341 333 326 320
181 181 177 181 181 178 179 179 164 161 168 164 145 137 190 293 277 199 173 169 165 152 148 145 138 133 124 112 110 115 151 155 166 165 146 107 33 2 350 345 340 333 323
181 180 178 179 178 178 186 190 180 172 175 185 172 158 168 204 208 289 199 173 169 159 154 145 144 142 135 124 110 95 121 148 184 185 166 136 14 358 348 346 342 336 328
183 181 179 180 179 180 185 191 188 180 168 182 188 186 169 154 158 178 264 208 183 171 171 162 150 145 141 133 126 117 110 120 169 200 199 304 349 349 349 347 342 338 331
182 180 182 180 181 185 188 186 183 184 182 184 179 171 164 150 144 157 193 205 211 204 187 173 160 154 149 140 134 125 114 118 138 249 275 326 348 351 347 343 340 335 328
182 181 183 184 184 187 188 189 193 193 193 190 186 182 174 172 181 171 181 192 202 209 192 170 171 166 156 146 143 134 121 114 123 296 327 19 18 4 349 342 341 337 332
180 183 181 187 188 193 193 189 194 198 196 196 196 198 194 190 168 168 166 171 185 188 176 186 189 170 159 152 148 142 132 128 141 166 43 49 36 13 358 349 345 341 331
174 184 182 186 192 193 193 192 195 198 197 203 205 199 198 199 184 179 169 161 168 187 199 203 166 175 161 157 158 142 136 138 135 116 83 68 45 22 3 351 344 338 332
116 151 182 189 191 198 200 193 202 203 201 207 206 203 202 197 193 189 171 169 169 187 209 195 179 172 160 156 160 146 148 161 152 137 120 92 58 26 7 353 346 338 335
61 101 197 203 201 209 207 206 210 207 205 207 200 202 204 194 190 184 178 178 176 176 191 175 171 160 161 164 170 154 166 172 173 172 166 150 99 23 6 356 348 341 334
31 5 238 224 219 217 214 216 220 213 214 213 206 204 206 194 189 185 178 173 173 163 171 154 138 139 152 167 160 155 162 166 182 191 189 186 174 28 1 356 352 348 342
10 357 331 278 252 239 228 225 226 219 215 215 212 206 203 191 191 183 178 184 179 168 158 167 163 159 164 171 162 166 170 175 185 203 200 191 193 213 354 354 353 351 352
3 359 351 328 294 269 249 240 236 231 224 218 209 203 201 191 192 185 182 181 177 169 153 155 162 156 147 151 150 165 170 176 195 209 206 201 201 202 328 346 347 353 357
1 353 342 331 319 303 280 260 242 233 230 224 215 207 201 194 192 187 187 185 174 170 160 156 159 156 153 149 154 169 186 195 202 200 203 199 205 245 295 331 348 0 5
355 348 341 336 331 317 300 291 269 245 233 229 223 215 211 203 197 194 190 185 178 176 172 175 174 167 174 171 183 174 186 172 199 194 177 206 181 335 323 318 352 8 9
347 344 341 333 328 322 314 305 292 259 243 232 228 224 217 207 206 206 202 193 185 182 186 186 188 193 192 186 169 169 162 164 210 197 170 199 164 193 240 275 300 349 6
338 335 329 325 314 306 307 302 294 282 253 241 230 221 221 217 208 202 205 202 201 201 193 186 192 197 185 184 170 170 177 180 195 172 153 184 172 197 235 265 238 249 86
327 322 318 314 307 301 302 297 292 281 261 248 236 225 220 214 207 196 192 195 199 204 200 195 195 192 185 177 177 176 174 149 102 126 151 170 181 195 196 285 258 216 185
316 312 310 308 302 300 302 299 292 274 260 255 246 233 223 220 215 206 197 195 198 209 206 192 189 186 184 181 168 142 145 150 166 187 176 158 161 150 159 250 283 245 202
303 304 301 296 291 290 296 299 295 275 264 260 250 237 231 229 222 214 206 198 203 201 179 176 177 179 178 184 183 174 168 163 151 185 186 158 152 143 174 253 280 329 335